Flag for Germany Weather past 2 weeks in Weißenfels, Saxony-Anhalt, Germany

Now
55 °F

Sprinkles. Overcast.


Feels Like: 55 °F
Forecast: 47 / 67 °F
Wind: 1 mph from North

Location: Leipzig-Schkeuditz

Current Time: May 28, 2015 at 11:26:54 PM

Latest Report: May 28, 2015 at 10:00 PM


Visibility: 22 mi

Pressure: 29.94 "Hg

Humidity: 81%

Dew point: 49 °F

Location of WeißenfelsLocation

Historic Weather in Weißenfels — Graph

°F

Weißenfels temperature yesterday

Maximum temperature yesterday: 56 °F (at 6:00 PM)
Minimum temperature yesterday: 44 °F (at 4:00 AM)
Average temperature yesterday: 51 °F

Past Weeks' High & Low Weather Summary

 TemperatureHumidityPressure
High72 °F (May 18, 6:00 PM)95% (May 15, 6:00 AM)30.34 "Hg (May 15, 6:00 AM)
Low39 °F (May 15, 6:00 AM)26% (May 18, 6:00 PM)29.64 "Hg (May 19, 4:00 AM)
Average55 °F61%30.04 "Hg
* Reported May 13 10:00 PM — May 28 10:00 PM, Weißenfels, Weather by CustomWeather, © 2015

Note: Actual official high and low records may vary slightly from our data, if they occured in-between our weather recording intervals... More about our weather records

Advertising

Weißenfels weather history for previous 24 hours

 ConditionsComfort  
Time TempWeatherWind HumidityBarometerVisibility
10:00 PM
Thu, May 28
55 °FSprinkles. Overcast.1 mph81%29.94 "Hg22 mi
9:00 PM58 °FCool.1 mph74%29.89 "HgN/A
8:00 PM60 °FLight rain. Overcast.5 mph62%29.90 "Hg25 mi
7:00 PM65 °FLight rain. Overcast.6 mph39%29.88 "Hg28 mi
6:00 PM67 °FOvercast.7 mph34%29.88 "Hg28 mi
4:00 PM67 °FPartly sunny.10 mph35%29.91 "Hg31 mi
3:00 PM67 °FPartly sunny.8 mph36%29.92 "Hg31 mi
2:00 PM65 °FPartly sunny.7 mph37%29.95 "Hg28 mi
1:00 PM63 °FOvercast.8 mph38%29.97 "Hg28 mi
12:00 PM64 °FPartly sunny.7 mph39%29.99 "Hg28 mi
10:00 AM57 °FOvercast.7 mph49%30.03 "Hg28 mi
9:00 AM53 °FOvercast.7 mph59%30.05 "Hg25 mi
8:00 AM51 °FOvercast.6 mph63%30.06 "Hg25 mi
7:00 AM46 °FOvercast.5 mph72%30.06 "Hg28 mi
6:00 AM45 °FPartly sunny.3 mph75%30.08 "Hg28 mi
4:00 AM44 °FPassing clouds.5 mph81%30.09 "Hg31 mi
3:00 AM44 °FPassing clouds.3 mph85%30.10 "Hg31 mi
2:00 AM44 °FPassing clouds.3 mph82%30.12 "Hg31 mi
1:00 AM46 °FPassing clouds.3 mph79%30.13 "Hg31 mi
12:00 AM48 °FPassing clouds.3 mph73%30.14 "Hg31 mi
Weather by CustomWeather, © 2015

See weather overviewHow to use our weather pages